Location: Fontevrault
(47.1823°N, 0.0493°E)
Time: 08:33:12
(UTC+00:00)

Cosmos 1455 - Pass Details

Date: 16 June 2021
Orbit: 496 x 521 km, 82.5° (Epoch: 03 August)

Event Time Altitude Azimuth Distance (km) Brightness Sun altitude
Rises 23:30:49 0° 346° (NNW) 2,652 7.4 -19.1°
Reaches altitude 10° 23:33:00 10° 341° (NNW) 1,756 6.1 -19.2°
Maximum altitude 23:36:45 52° 265° (W) 649 2.6 -19.2°
Enters shadow 23:37:30 43° 225° (SW) 726 2.6 -19.2°
